COSMOS 1743

Last updated on Thu Oct 30 2025 00:02:14 GMT+0000 (Coordinated Universal Time)

1 16719U 86034A 25302.19144752 .00035512 00000+0 65097-3 0 9995 2 16719 82.5379 210.7457 0009230 60.2327 299.9840 15.49084961159834
UTC large
Height (km)
Speed (km/s)
/
Latitude / Longitude
Inclination (degrees)
Orbital Period (minutes)
Azimuth
Elevation
Range (km)
Doppler Factor

Next 0 passes for location: London (51.5072 / 0.1276)

Sorry there are no passes over London.